www.pogodaiklimat.ru

Погода и климат >> Архив погоды >> Россия >> Мурманская область >> Ковдор


ПОГОДА в Ковдоре

  • Прогноз погоды в Ковдоре
  • Монитор погоды в Ковдоре
  • Климат города

АРХИВ ПОГОДЫ в Ковдоре

Время (UTC), дата Ветер
(напр.,м/с)
 
Видим.   Явления Облачность Т
(С)
Тd
(С)
f
(%)
Тe
(С)
Тes
(С)
Комфортность P
(гПа)
Po
(гПа)
Тmin
(С)
Tmax
(С)
R
(мм)
R24
(мм)
S
(см)
03 13.11 штиль 0 4000 м ливневой снег [диам. отлож. мокр. снега 27 мм] 10/10 300 м
[Cb cap]
-0.1 -0.1 100 -2 -2 997.3 967.2 -0.8 6
06 13.11 штиль 0 10 км слабый ливневой снег 10 баллов -0.4 -0.4 100 -2 -2 998.2 968.0 -0.8 6
09 13.11 ЮВ 1
{3}
20 км 9 баллов -0.5 -0.5 100 -3 -3 999.5 969.3
12 13.11 В 1
{2}
20 км 10 баллов -0.7 -0.7 100 -3 -3 999.6 969.3
15 13.11 ЮВ 1
{1}
20 км 9 баллов -1.4 -1.4 100 -4 -4 1001.1 970.7 0.9
18 13.11 В 1
{1}
20 км 10 баллов -1.5 -1.6 99 -4 -4 1001.1 970.7 -0.4 0.3
21 13.11 штиль 0
{1}
20 км 9 баллов -2.0 -2.0 100 -3 -3 1001.2 970.7
00 14.11 штиль 0
{1}
20 км 9 баллов -1.9 -2.0 99 -3 -3 1001.1 970.7
03 14.11 штиль 0
{1}
20 км [диам. отлож. мокр. снега 37 мм] 10/10 600 м
[Sc]
-1.7 -2.0 98 -3 -3 998.8 968.4 -2.1
06 14.11 Ю 1
{2}
20 км 10 баллов -1.8 -1.9 99 -4 -4 999.7 969.3 -2.1
09 14.11 ЮЗ 2
{3}
20 км 9 баллов -1.7 -2.4 95 -6 -6 999.7 969.3
12 14.11 З 1
{3}
20 км 9 баллов -2.3 -3.0 95 -5 -5 999.8 969.3
15 14.11 ЮЗ 2
{4}
20 км 9 баллов -3.1 -3.9 94 -7 -7 999.8 969.3 0.0
18 14.11 ЮЗ 2
{3}
10 км слабый ливневой снег [диам. отлож. мокр. снега 37 мм] 10/10 300 м
[Cb cap]
-3.7 -4.4 95 -8 -8 998.2 967.6 -1.7 0.0
21 14.11 Ю 2
{5}
10 км слабый ливневой снег 10 баллов -3.6 -4.4 94 -8 -8 998.6 968.0
00 15.11 ЮЗ 3
{6}
20 км 10 баллов -3.5 -4.5 93 -9 -9 998.6 968.0
03 15.11 З 1
{4}
10 км слабый ливневой снег [диам. отлож. мокр. снега 37 мм] 10/10 300 м
[Cb cap]
-3.5 -4.2 95 -6 -6 996.5 966.0 -3.8 0.4
06 15.11 штиль 0
{3}
н/о слабый снег н/о -3.4 -3.9 96 -5 -5 996.5 966.0 -3.8 0.8
09 15.11 ЮЗ 2
{2}
20 км слабый снег 10 баллов -3.0 -3.5 96 -7 -7 998.5 968.0
12 15.11 ЮЗ 1
{2}
20 км слабый снег 10 баллов -2.5 -2.9 97 -5 -5 998.4 968.0
15 15.11 З 2
{3}
10 км слабый снег 10 баллов -3.1 -3.8 95 -7 -7 999.8 969.3 3
18 15.11 штиль 0 20 км 10 баллов -4.3 -5.3 93 -5 -5 1000.0 969.3 -2.4 2
21 15.11 З 1
{2}
20 км в посл. час ливневой снег 10 баллов -4.9 -5.4 96 -7 -7 1001.5 970.7
00 16.11 штиль 0 20 км 9 баллов -5.0 -5.1 99 -6 -6 1002.9 972.0
03 16.11 З 1
{3}
20 км [диам. отлож. мокр. снега 43 мм] 10/10 300 м
[Cb cap]
-5.1 -5.8 95 -8 -8 1002.3 971.5 -5.1 0.0
06 16.11 З 1
{3}
20 км 10 баллов -6.1 -6.6 96 -9 -9 1004.3 973.3 -6.1 0.0
09 16.11 З 2
{3}
20 км 10 баллов -6.6 -7.1 96 -11 -11 1005.8 974.7
12 16.11 штиль 0
{2}
н/о 10 баллов -6.3 -6.5 98 -7 -7 1005.0 973.9
15 16.11 З 1
{3}
20 км 9 баллов -8.4 -8.7 98 -11 -11 1007.4 976.0
18 16.11 З 1
{2}
20 км 10 баллов -8.4 -8.7 98 -11 -11 1006.1 974.7 -6.1
21 16.11 З 1
{4}
20 км 10 баллов -8.6 -8.9 98 -11 -11 1006.1 974.7
00 17.11 З 1
{2}
20 км 10 баллов -9.1 -9.5 97 -12 -12 1006.1 974.7
03 17.11 З 1
{3}
20 км [диам. отлож. мокр. снега 39 мм] 3/3 600 м
[Sc]
-11.4 -12.0 95 -14 -14 1004.3 972.6 -11.4
06 17.11 штиль 0 20 км 5 баллов -12.5 -13.3 94 -13 -13 1005.1 973.3 -12.5
09 17.11 штиль 0 20 км дым 9 баллов -11.8 -12.4 95 -12 -12 1003.7 972.0
12 17.11 штиль 0 4000 м слабый ливневой снег 10 баллов -11.6 -12.2 95 -12 -12 1002.3 970.7
15 17.11 ЮВ 1
{2}
4000 м слабый ливневой снег 10 баллов -12.8 -13.7 93 -15 -15 1001.0 969.3 0.3
18 17.11 штиль 0
{1}
20 км в посл. час ливневой снег [диам. отлож. мокр. снега 41 мм] 10/10 300 м
[Cb cap]
-11.9 -12.7 94 -12 -12 998.6 967.1 -11.4 0.3
21 17.11 штиль 0
{1}
10 км слабый ливневой снег 10 баллов -11.7 -12.3 95 -12 -12 998.2 966.7
00 18.11 С 1
{2}
20 км 7 баллов -12.2 -13.0 94 -14 -14 998.3 966.7
03 18.11 СЗ 1
{1}
20 км [диам. отлож. мокр. снега 43 мм] 8/0
[Ci sp]
-13.0 -13.9 93 -15 -15 997.3 965.7 -13.6 0.2
06 18.11 З 1
{2}
20 км 2 балла -14.8 -15.8 92 -17 -17 998.6 966.7 -14.9 0.2
09 18.11 СЗ 1
{2}
20 км в посл. час ливневой снег 2 балла -14.0 -15.0 92 -16 -16 999.8 968.0
12 18.11 С 1
{2}
20 км слабый ливневой снег 4 балла -14.2 -15.1 93 -17 -17 1001.2 969.3
15 18.11 СЗ 1
{2}
10 км слабый ливневой снег 9 баллов -12.6 -13.5 93 -15 -15 1002.5 970.7 0.2
18 18.11 штиль 0
{1}
20 км {ливн. осадки} [диам. отлож. мокр. снега 46 мм] 9/9 300 м
[Cb cap]
-13.1 -14.0 93 -13 -13 1002.5 970.7 -12.3 0.2
21 18.11 штиль 0 20 км [диам. отлож. мокр. снега 46 мм] 10/10 300 м
[St]
-12.5 -13.4 93 -13 -13 1004.0 972.2
00 19.11 штиль
{1}
слабый снег н/о -12.9 93 1005.6 973.8
03 19.11 штиль 0 10 км слабый ливневой снег [диам. отлож. мокр. снега 49 мм] 10/10 300 м
[Cb cap]
-12.1 -12.9 94 -12 -12 1007.3 975.5 -13.9 0.2
06 19.11 штиль 0 10 км слабый ливневой снег 9 баллов -12.9 -13.7 94 -13 -13 1009.3 977.3 -14.7 0.2
09 19.11 штиль 0
{1}
20 км в посл. час ливневой снег 9/9 300 м
[Cb cap]
-11.0 -11.6 95 -11 -11 1010.5 978.7
12 19.11 штиль 0 20 км 9 баллов -12.4 -13.2 94 -12 -12 1013.4 981.3
15 19.11 ЮЗ 1
{1}
20 км 9 баллов -13.2 -14.1 93 -16 -16 1013.5 981.3 0.2
18 19.11 штиль 0 20 км 4 балла -14.1 -15.0 93 -14 -14 1015.0 982.7 -10.4 0.2
21 19.11 штиль 0 20 км [диам. отлож. мокр. снега 50 мм] 9/0
[Ac trans]
-14.6 -15.7 91 -15 -15 1015.4 983.0
00 20.11 штиль 0 20 км 9 баллов -14.7 -15.7 92 -15 -15 1016.5 984.0

 

Местоположение метеостанции Ковдор (Мурманская область, Россия): широта 67.57 долгота 30.45 высота над уровнем моря 246 м.

В архиве по умолчанию представлена погода в Ковдоре за последнюю неделю. Архивные данные за месяц целиком и за предыдущие месяцы, начиная с января 2011 года, Вы можете получить, выбрав интересующий диапазон дат из раскрывающегося списка и нажав кнопку "Ввод!".

Внимание! Время в таблицах - всемирное. Для получения местного времени необходимо прибавить поправку, которая в Ковдоре равна 3 ч.

Смотрите также архив погоды в соседних городах и на ближайших метеорологических станциях:

Погода в Salla Varriotunturi (Финляндия) (41 км)
Погода в Salla Naruska (Финляндия) (71 км)
Погода в Ниванкюле (Мурманская область, Россия) (88 км)
Погода в Зашейке (Мурманская область, Россия) (91 км)
Погода в Кандалакше (Мурманская область, Россия) (94 км)
Погода в Savukoski (Финляндия) (102 км)
Погода в Зареченске (Мурманская область, Россия) (108 км)
Погода в Salla Myllytie (Финляндия) (113 км)
Погода в Мончегорске (Мурманская область, Россия) (113 км)
Погода в Sodankyla Lokka (Финляндия) (117 км)

Пояснения к столбцам:

Ветер - указаны скорость ветра в м/с - средняя за 10 мин, порывы в срок и между сроками (в фигурных скобках) и направление, откуда дует ветер: С - северный, СВ - северо-восточный, В - восточный, ЮВ - юго-восточный, Ю - южный, ЮЗ - юго-западный, З - западный, СЗ - северо-западный.
Видимость - горизонтальная дальность видимости в метрах или километрах. При видимости от 1 до 10 км при отсутствии осадков обычно наблюдается дымка, при ухудшении видимости до 1 км и менее - туман. В сухую погоду видимость может ухудшаться дымом, пылью или мглою.
Явления - указаны атмосферные явления, наблюдавшиеся в срок или в последний час перед сроком; фигурными скобками обозначены явления, наблюдавшиеся между сроками (за 1-3 часа до срока); квадратными скобками обозначены град или гололедные отложения с указанием их диаметра в мм.
Облачность - указаны через наклонную черту общая и нижняя облачность в баллах и высота нижней границы облаков в метрах; квадратными скобками обозначены формы облаков: Ci - перистые, Cs - перисто-слоистые, Cc - перисто-кучевые, Ac - высококучевые, As - высокослоистые, Sc - слоисто-кучевые, Ns - слоисто-дождевые, Cu - кучевые, Cb - кучево-дождевые. Подробнее классификацию облаков см. в Атласе облаков (PDF).
T - Температура воздуха - температура, измеренная на высоте 2 м над землей.
Td - Температура точки росы - температура, при понижении до которой содержащийся в воздухе водяной пар достигнет насыщения.
f - Относительная влажность воздуха - влажноcть воздуха, измеренная на высоте 2 м над землей.
Te - Эффективная температура - температура, которую ощущает одетый по сезону человек в тени. Характеристика душности погоды. При расчете учитывается влияние влажности воздуха и скорости ветра на теплоощущения человека.
Tes - Эффективная температура на солнце - температура, которую ощущает человек, с поправкой на солнечный нагрев. Характеристика знойности погоды. Зависит от высоты солнца над горизонтом, облачности и скорости ветра. Ночью, в пасмурную погоду, а также при ветре 12 м/с и более поправка равна нулю.
P - Атмосферное давление - приведенное к уровню моря атмосферное давление.
Po - Атмосферное давление - измеренное на уровне метеостанции атмосферное давление.
Tmin - Минимальная температура - минимум температуры воздуха на высоте 2 м над землей.
Tmax - Максимальная температура - максимум температуры воздуха на высоте 2 м над землей.
R - Количество осадков - Количество выпавших осадков за период времени, мм. При наведении курсора мыши на число - период времени, за который выпало указанное количество осадков.
R24 - Количество осадков - Количество выпавших осадков за 24 часа, мм.
S - Снежный покров - Высота снежного покрова, см. При наведении курсора мыши на число - состояние снежного покрова и степень покрытия местности в баллах.